User: anonymous   Login
Location: Dead Woman Crossing
(43.5369°N, 106.3228°W)
Time: 16:49:01
(UTC+00:00)
Language:

deb Delta 126 - Orbit

View from above orbital plane
View from above orbital plane
View from above satellite
View from above satellite

Ground track
Ground track

The orbit data is extracted from the following two-line orbital elements,

1 10752U 76077AZ  22333.47695813  .00001130  00000-0  38467-2 0  9993
2 10752 101.7367 161.4497 0387728 119.5707 278.2013 12.78613817137872
Epoch (UTC): 29 November 2022 11:26:49
Eccentricity: 0.0387728
inclination: 101.7367°
perigee height: 1047 km
apogee height: 1646 km
right ascension of ascending node: 161.4497°
argument of perigee: 119.5707°
revolutions per day: 12.78613817
mean anomaly at epoch: 278.2013°
orbit number at epoch: 13787

The dashed part of the orbit path shows where the satellite is in the earth's shadow,  

DLR